Location: Unspecified
(0.0000°N, 0.0000°E)
Time: 17:52:37
(UTC+00:00)

STARLINK 1034 - Pass Details

Date: 15 January 2020
Orbit: 437 x 439 km, 53.0° (Epoch: 17 January)

Event Time Altitude Azimuth Distance (km) Brightness Sun altitude
Rises 18:35:09 0° 310° (NW) 2,401 7.3 -6.0°
Reaches altitude 10° 18:37:24 10° 300° (WNW) 1,536 6.5 -6.5°
Maximum altitude 18:40:30 31° 236° (SW) 793 5.4 -7.3°
Drops below altitude 10° 18:43:36 10° 172° (S) 1,542 6.1 -8.0°
Sets 18:45:53 0° 161° (SSE) 2,413 6.9 -8.5°
